Weather History for Goodland, KS

Change the Weather History Date:

Saturday, January 5, 2013

  Actual Average Record
Temperature  
Mean Temperature 27 °F 30 °F  
Max Temperature 41 °F 42 °F 73 °F (2012)
Min Temperature 12 °F 17 °F -14 °F (1942)
Degree Days  
Heating Degree Days 38 35  
Month to date heating degree days 215 177  
Since 1 July heating degree days 2483 2584  
Cooling Degree Days 0 0  
Month to date cooling degree days 0 0  
Year to date cooling degree days 0 0  
Moisture  
Dew Point 15 °F    
Average Humidity 63    
Maximum Humidity 77    
Minimum Humidity 48    
Precipitation  
Precipitation 0.00 in 0.01 in 0.33 in (1955)
Month to date precipitation 0.01 0.06  
Year to date precipitation 0.01 0.06  
Snow  
Snow 0.00 in 0.20 in - ()
Month to date snowfall 0.3 0.9  
Since 1 July snowfall 10.3 13.6  
Snow Depth 1.00 in    
Sea Level Pressure  
Sea Level Pressure 30.26 in    
Wind  
Wind Speed 13 mph (WNW)    
Max Wind Speed 22 mph    
Max Gust Speed 28 mph    
Visibility 10 miles    
Events      
T = Trace of Precipitation, MM = Missing Value Source: NWS Daily Summary

Daily Weather History Graph

Daily Weather History Graph

Search for Another Location

Airport:

Trip Planner

Search our weather history database for the weather conditions in past years. The results will help you decide how hot, cold, wet, or windy it might be!

Date:

Astronomy

Jan. 05, 2013 Rise Set
Actual Time 7:07 AM MST 4:37 PM MST
Civil Twilight 6:37 AM MST 5:07 PM MST
Nautical Twilight 6:03 AM MST 5:41 PM MST
Astronomical Twilight 5:31 AM MST 6:13 PM MST
Moon 12:16 AM MST (1/5) 11:27 AM MST (1/5)
Length of Visible Light 10h 30m
Length of Day
9h 30m
Last Quarter, 43% of the Moon is Illuminated
Jan 5
Last Quarter
Jan 11
New
Jan 18
First Quarter
Jan 26
Full
Feb 3
Last Quarter

Hourly Weather History & Observations

Time (MST) Temp. Windchill Dew Point Humidity Pressure Visibility Wind Dir Wind Speed Gust Speed Precip Events Conditions
12:53 AM 16.0 °F 4.4 °F 7.0 °F 68% 30.06 in 10.0 mi West 9.2 mph - N/A   Clear
1:53 AM 14.0 °F 5.1 °F 5.0 °F 67% 30.08 in 10.0 mi West 5.8 mph - N/A   Clear
2:53 AM 12.9 °F 0.7 °F 3.9 °F 67% 30.08 in 10.0 mi West 9.2 mph - N/A   Clear
3:53 AM 12.9 °F -0.9 °F 5.0 °F 71% 30.10 in 10.0 mi West 11.5 mph - N/A   Clear
4:53 AM 12.9 °F -1.6 °F 6.1 °F 74% 30.14 in 10.0 mi West 12.7 mph - N/A   Clear
5:53 AM 14.0 °F 2.0 °F 6.8 °F 73% 30.04 in 10.0 mi West 9.2 mph - N/A   Clear
6:53 AM 19.0 °F 4.0 °F 9.0 °F 65% 30.18 in 10.0 mi NW 17.3 mph - N/A   Clear
7:53 AM 19.9 °F 6.7 °F 10.0 °F 65% 30.22 in 10.0 mi NW 13.8 mph - N/A   Clear
8:53 AM 26.1 °F 15.0 °F 12.9 °F 58% 30.24 in 10.0 mi NW 12.7 mph - N/A   Clear
9:53 AM 30.9 °F 20.2 °F 16.0 °F 54% 30.27 in 10.0 mi NW 15.0 mph - N/A   Clear
10:53 AM 34.0 °F 23.0 °F 18.0 °F 52% 30.27 in 10.0 mi NW 18.4 mph 24.2 mph N/A   Clear
11:53 AM 36.0 °F 26.3 °F 19.9 °F 52% 30.25 in 10.0 mi NNW 16.1 mph - N/A   Clear
12:53 PM 39.0 °F 30.6 °F 21.9 °F 50% 30.26 in 10.0 mi NW 15.0 mph - N/A   Clear
1:53 PM 39.9 °F 31.4 °F 23.0 °F 51% 30.27 in 10.0 mi NW 16.1 mph - N/A   Clear
2:53 PM 39.9 °F 32.9 °F 25.0 °F 55% 30.30 in 10.0 mi NW 11.5 mph - N/A   Clear
3:53 PM 37.0 °F 29.3 °F 25.0 °F 62% 30.32 in 10.0 mi NW 11.5 mph - N/A   Clear
4:53 PM 33.1 °F 24.4 °F 24.1 °F 70% 30.35 in 10.0 mi WNW 11.5 mph - N/A   Clear
5:53 PM 28.9 °F 19.2 °F 21.9 °F 75% 30.38 in 10.0 mi West 11.5 mph - N/A   Clear
6:53 PM 30.0 °F 19.5 °F 21.9 °F 72% 30.37 in 10.0 mi WNW 13.8 mph - N/A   Clear
7:53 PM 27.0 °F 16.1 °F 19.9 °F 75% 30.39 in 10.0 mi West 12.7 mph - N/A   Clear
8:53 PM 27.0 °F 15.2 °F 19.0 °F 72% 30.38 in 10.0 mi WNW 15.0 mph - N/A   Clear
9:53 PM 21.9 °F 11.0 °F 16.0 °F 78% 30.39 in 10.0 mi WSW 10.4 mph - N/A   Clear
10:53 PM 21.9 °F 10.4 °F 15.1 °F 75% 30.40 in 10.0 mi West 11.5 mph - N/A   Clear
11:53 PM 19.9 °F 10.1 °F 12.9 °F 74% 30.39 in 10.0 mi West 8.1 mph - N/A   Clear